Temp
11 11 11 10 10 10 10 9 9 9 9 9 8 8 8 8 8 7 7 7 7 6 6 6 6 6 6 6 6 6 6 7 8 8 9 9 10 10 11 11 11 12 12 13 13 14 14 14 14 14 14 14 14 14 14 15 15 15 14 14 14 14 14 14 14 15 16 16 16 16 17 17 16 16 16 16 16 16 16 16 16 16 15 15 15
10 10 10 10 10 10 9 9 9 9 8 8 8 8 8 8 7 7 7 7 6 6 6 6 5 5 5 5 5 6 6 6 6 6 6 7 8 9 10 10 11 11 12 12 13 13 14 14 14 14 14 14 14 14 14 14 14 14 14 14 14 14 14 14 14 15 15 16 16 16 17 17 16 16 16 16 17 16 16 15 16 16 15 15 15
10 10 10 10 9 9 9 9 8 8 8 8 8 8 8 8 7 7 7 6 6 6 5 5 5 5 5 4 5 5 5 4 4 4 4 4 5 7 8 9 9 10 11 12 12 13 13 14 14 14 14 14 14 14 14 14 14 14 14 14 14 14 14 14 14 15 15 15 16 16 16 16 16 16 16 16 17 17 16 15 15 15 15 15 15
10 10 9 9 9 9 9 8 8 8 8 8 8 8 8 7 7 7 7 6 6 6 5 5 5 4 4 4 4 4 4 4 4 4 3 3 3 4 6 7 8 9 10 11 12 12 12 13 14 14 14 14 14 15 14 14 14 14 14 14 14 14 14 14 14 15 15 15 15 16 16 16 16 16 16 15 16 16 15 15 15 15 15 15 15
10 9 9 9 9 9 9 8 8 8 8 8 7 7 7 7 7 7 6 6 6 6 5 5 4 4 4 4 4 4 4 4 3 3 3 3 3 3 4 5 6 7 9 10 11 12 12 13 13 14 14 14 14 14 14 14 14 14 14 14 14 14 14 14 14 14 15 15 15 15 16 16 16 16 15 15 14 14 14 14 14 14 14 14 15
10 9 9 9 9 9 9 8 8 8 8 8 7 7 7 7 7 6 6 6 6 6 5 5 4 4 4 4 4 4 4 3 3 3 3 4 4 4 4 4 5 5 6 8 10 11 11 12 13 13 14 14 14 14 14 14 14 14 14 15 15 14 14 14 14 14 14 15 15 14 15 15 15 15 15 15 14 13 13 13 13 13 13 13 14
9 9 9 9 9 9 9 8 8 8 8 8 7 7 7 7 6 6 6 6 6 5 5 5 5 5 5 4 4 4 3 3 2 3 3 4 4 3 4 4 4 5 6 7 8 9 11 11 12 13 14 14 14 14 14 14 14 14 14 15 15 14 14 14 14 14 14 14 14 14 15 15 15 15 15 14 14 13 13 13 12 12 13 13 14
10 10 9 9 9 9 8 8 8 8 8 8 7 7 7 7 6 6 6 6 5 5 5 5 5 5 4 4 4 3 3 2 2 2 3 4 3 3 3 4 4 5 6 6 7 8 9 10 10 12 13 14 14 14 14 14 14 14 14 14 15 14 14 14 14 14 14 14 14 14 14 14 14 14 14 13 13 13 13 13 13 13 13 13 14
10 10 9 9 9 9 8 8 8 8 8 8 7 7 7 6 6 6 6 5 5 5 5 4 4 4 4 4 3 3 3 2 2 2 2 3 3 3 3 3 4 4 5 6 7 7 8 9 9 11 12 13 13 14 14 14 14 14 14 14 15 15 14 14 14 14 14 14 13 13 14 14 14 13 13 13 13 13 13 13 13 13 13 12 13
10 10 9 9 9 9 8 8 8 8 8 8 7 7 7 6 6 6 5 5 5 5 4 4 4 4 4 3 3 3 3 2 3 3 3 3 3 3 3 3 4 4 5 5 6 7 7 8 9 10 11 12 13 13 14 14 14 14 14 14 15 15 15 14 14 14 14 14 13 13 13 13 13 13 13 13 14 14 13 13 13 13 13 12 11
10 9 9 9 9 9 8 8 8 8 8 8 7 7 7 6 6 6 5 5 5 5 4 4 4 4 3 3 3 3 3 2 3 3 4 4 3 3 3 3 4 4 4 5 5 6 6 7 8 9 10 11 12 13 13 14 14 14 14 14 14 15 15 14 14 13 13 14 14 13 13 13 14 14 14 14 14 14 14 13 13 13 12 11 11
9 9 9 9 9 9 8 8 8 8 8 7 7 7 7 6 6 6 5 5 5 5 4 4 4 4 4 3 3 3 3 3 3 3 4 4 4 3 3 3 3 4 4 4 4 4 5 6 7 8 9 10 11 12 13 14 14 14 14 14 14 14 15 15 14 14 13 13 13 13 13 14 14 14 14 14 14 14 14 14 13 13 13 12 12
9 9 9 9 9 9 9 8 8 8 7 7 7 7 7 6 6 6 6 5 5 5 5 4 4 4 4 4 3 3 3 3 3 3 4 4 4 3 3 3 3 3 3 3 4 4 4 4 5 6 8 9 9 10 11 12 13 14 14 14 14 14 14 14 15 14 14 14 14 13 14 14 14 14 14 15 14 14 14 13 13 13 13 13 13
9 9 9 9 9 9 9 8 8 8 8 7 7 7 7 7 6 6 6 6 5 5 5 5 4 4 4 4 4 3 3 3 3 3 4 4 4 3 2 2 2 3 3 3 3 3 3 4 4 4 6 7 8 8 8 10 11 13 14 14 14 14 14 14 14 14 14 14 14 14 14 14 14 14 15 15 15 14 14 14 14 14 14 14 14
9 9 9 9 9 9 9 8 8 8 8 7 7 7 7 7 6 6 6 6 5 5 5 5 4 4 4 4 4 3 3 3 3 3 3 4 4 3 2 2 2 2 3 3 3 3 3 3 4 3 4 5 7 7 7 8 9 11 12 13 14 14 14 14 14 14 14 14 14 14 14 14 14 14 14 14 14 15 15 15 14 14 14 14 14
9 9 9 9 9 9 9 8 8 8 8 7 7 7 7 7 6 6 6 6 5 5 5 5 4 4 4 4 3 3 3 3 3 3 3 3 3 3 2 2 1 2 2 2 2 3 3 3 3 3 3 4 5 6 7 8 9 9 11 12 13 13 13 14 14 14 14 14 14 14 14 14 14 15 15 14 14 14 14 14 14 14 13 13 13
10 9 9 9 9 9 9 8 8 8 8 7 7 7 7 7 7 6 6 6 5 5 5 5 5 4 4 4 3 3 3 3 3 3 3 3 3 2 1 1 1 1 2 2 2 2 2 2 3 2 2 3 4 5 6 7 8 9 10 11 13 13 13 13 14 14 14 14 14 14 14 14 14 14 15 15 14 14 13 13 13 13 13 12 12
10 10 9 9 9 9 9 9 8 8 8 7 7 7 7 7 7 6 6 6 5 5 5 5 5 4 4 4 3 3 3 3 3 3 3 3 2 2 1 1 1 1 1 2 2 2 2 2 2 2 2 3 4 5 5 6 7 9 9 11 12 12 12 13 13 13 13 13 13 13 13 14 14 14 14 14 14 14 14 13 13 13 12 12 12
10 10 10 9 9 9 9 9 8 8 8 8 7 7 7 7 7 6 6 6 6 5 5 5 5 4 4 4 4 3 3 3 3 3 3 3 2 2 1 1 1 1 1 1 2 2 2 2 2 2 2 3 4 5 5 6 7 8 9 10 11 12 13 13 13 13 13 13 13 13 13 13 13 14 14 14 14 14 14 14 14 13 13 12 12
10 10 10 9 9 9 9 9 8 8 8 8 7 7 7 7 7 6 6 6 6 5 5 5 5 4 4 4 4 4 3 3 3 3 3 3 3 2 2 1 0 0 1 1 1 1 1 2 2 2 2 3 3 4 5 6 7 8 9 10 11 12 13 13 13 13 13 12 12 13 13 13 13 13 13 13 13 13 13 13 14 14 13 13 12
10 10 9 10 9 9 9 9 8 8 8 8 8 7 7 7 7 6 6 6 5 5 5 5 5 4 4 4 4 4 4 4 4 3 3 3 3 3 2 1 1 0 0 0 1 1 1 1 1 2 2 2 3 4 4 6 7 8 9 10 11 12 13 13 12 12 12 12 11 12 12 12 12 12 12 13 13 13 13 13 13 13 13 13 12
10 10 9 9 9 9 9 9 9 8 8 8 8 7 7 7 7 6 6 6 5 5 5 5 4 4 4 4 4 4 4 4 4 4 4 3 3 3 2 2 2 1 0 0 0 0 1 1 1 1 2 2 3 4 4 5 6 7 9 10 11 12 12 12 11 11 10 10 10 10 10 10 10 10 11 11 12 12 12 13 13 13 13 13 13
11 10 10 10 9 9 9 9 9 8 8 8 8 7 7 7 6 6 6 5 5 5 5 5 4 4 4 4 4 4 4 4 4 4 4 3 3 3 2 2 3 2 1 0 -0 0 0 0 1 1 2 2 3 3 4 4 4 6 8 10 11 11 11 10 10 9 9 9 8 8 8 8 9 9 9 10 10 11 11 12 12 12 12 12 13
11 10 10 10 10 9 9 9 9 9 8 8 8 7 7 6 6 6 6 5 5 5 5 4 4 4 4 4 4 4 4 4 4 4 4 3 3 3 3 2 3 3 2 1 0 0 0 0 1 2 2 2 2 3 3 4 4 4 6 7 8 9 9 8 8 8 8 7 7 7 6 7 7 8 8 9 9 10 10 11 11 11 12 11 11
10 10 10 10 10 10 9 9 9 9 9 8 8 7 7 7 6 6 5 5 5 5 5 4 4 4 3 3 3 4 4 3 3 4 4 3 3 3 3 2 2 3 2 1 1 0 1 1 2 3 3 3 2 2 3 3 4 4 5 5 6 6 7 7 7 7 6 6 6 6 5 6 6 6 7 8 9 9 10 10 9 10 10 10 10
10 10 10 10 10 10 9 9 9 9 8 8 8 7 7 7 6 6 5 5 5 5 5 4 4 4 3 3 3 3 3 3 3 3 3 3 3 3 2 2 2 2 2 2 1 1 1 1 2 2 3 3 3 2 2 2 3 4 4 4 4 4 4 5 6 6 5 5 5 5 5 5 5 6 7 7 8 8 9 9 8 8 9 10 9
10 10 10 10 10 9 9 9 9 9 8 8 8 7 7 7 6 6 5 5 5 5 5 4 4 4 3 3 3 3 3 3 3 3 3 3 3 3 2 2 2 2 2 2 1 1 1 1 1 2 3 4 4 4 3 2 2 3 3 3 3 3 3 3 4 5 5 5 4 4 5 5 5 6 6 7 7 7 7 8 8 7 8 9 8
10 10 9 9 9 9 9 9 9 9 8 8 8 7 7 7 6 6 5 5 5 5 5 4 4 3 3 3 3 3 3 3 3 3 3 3 3 3 2 2 2 2 2 1 1 1 1 1 1 1 2 2 2 3 3 2 2 2 2 2 3 3 3 3 3 3 4 4 4 4 5 5 5 5 6 6 6 6 6 7 7 6 7 8 7
10 10 9 10 9 9 9 9 9 9 8 8 8 7 7 7 6 6 6 5 5 5 5 4 4 4 3 3 3 3 3 2 3 3 3 3 3 3 2 2 2 2 2 1 1 1 0 0 -0 -0 -0 -0 -0 0 0 1 1 1 1 1 2 2 3 2 2 2 3 4 4 4 4 5 5 5 5 5 5 5 6 6 6 6 6 6 5
10 9 9 9 9 9 9 9 9 9 9 8 8 7 7 7 7 6 6 6 5 5 5 4 4 4 4 4 3 3 3 3 3 3 3 3 3 3 3 2 2 1 2 2 1 -0 -1 -0 -1 -1 -1 -1 -1 -1 -1 -1 -0 -0 0 1 1 1 1 2 2 3 3 4 4 4 4 4 4 4 5 5 5 5 5 6 6 6 5 5 4
10 9 9 9 9 9 9 9 9 9 9 8 8 8 8 7 7 7 6 6 6 5 5 5 4 4 4 4 3 3 3 3 3 3 3 3 3 3 3 2 2 1 1 1 0 -1 -1 -1 -1 -1 -1 -1 -1 -1 -1 -1 -1 -1 -0 -0 0 0 1 1 2 3 3 4 4 4 4 4 4 4 5 5 5 5 5 5 5 5 5 4 4
10 9 9 9 9 9 9 9 9 9 9 8 8 8 8 7 7 7 7 6 6 5 5 5 5 4 4 4 4 4 3 3 3 3 3 3 3 3 3 2 2 1 1 1 0 -1 -1 -1 -1 -1 -1 -1 -1 -1 -1 -1 -1 -1 -1 -0 -0 -0 0 0 1 2 2 3 4 4 4 4 5 5 5 5 5 5 5 5 5 5 5 5 5
9 9 9 9 9 9 9 9 9 9 8 8 8 8 8 8 7 7 7 7 7 6 5 5 5 4 4 4 4 3 3 3 3 3 3 3 3 3 3 2 2 2 1 1 0 -0 -0 -1 -1 -1 -1 -1 -1 -1 -1 -1 -1 -1 -1 -1 -1 -0 -0 0 1 1 1 2 3 3 4 4 4 5 5 5 5 5 5 5 5 5 5 5 5
9 9 9 9 9 9 9 9 9 8 8 8 8 8 8 8 7 7 7 7 7 6 6 5 5 5 4 4 4 3 3 3 3 3 3 3 3 3 3 3 2 2 2 1 1 0 0 -0 -0 -1 -1 -1 -1 -1 -1 -1 -1 -1 -0 -0 -0 -0 0 1 1 1 1 1 2 2 3 3 4 4 4 4 4 4 5 5 5 5 4 4 4
9 9 9 9 9 9 9 9 8 8 8 8 8 8 8 8 8 7 7 7 7 6 6 5 5 5 4 4 4 3 4 3 3 3 3 3 3 3 3 2 2 2 2 1 1 1 1 0 0 0 -0 -0 -0 -0 -0 -0 -0 -0 -0 -0 -0 0 0 0 0 0 1 1 1 1 2 2 2 3 3 4 4 4 4 4 4 4 4 4 4
9 9 9 9 9 9 9 9 9 8 8 8 8 8 8 8 8 7 7 7 7 6 6 6 5 5 4 4 4 4 4 3 3 3 3 2 2 3 2 1 1 2 2 2 1 1 1 1 1 1 1 1 0 0 0 0 -0 -0 -0 -0 0 0 0 0 0 0 1 1 1 1 1 1 2 2 2 3 3 3 3 3 4 4 4 4 4
9 9 9 9 9 9 9 9 9 9 9 8 8 8 8 8 7 7 7 7 7 7 6 6 6 5 5 4 4 4 4 3 3 3 3 2 2 2 2 1 1 2 2 2 2 2 2 2 1 1 1 1 1 1 1 0 0 0 1 1 1 0 0 0 0 0 1 1 1 1 1 1 1 1 2 2 3 3 3 3 3 3 4 4 4
10 10 9 9 9 9 9 9 9 9 9 9 9 8 8 8 8 7 7 7 7 7 7 6 6 5 4 4 4 4 4 3 3 2 2 2 2 2 2 2 2 2 2 2 2 2 2 2 2 2 2 1 1 1 1 1 1 1 1 1 1 1 1 1 1 1 1 1 1 1 1 1 1 1 2 2 2 3 3 3 3 3 4 4 4
9 9 9 9 9 9 9 9 9 9 9 9 9 8 8 8 8 8 7 7 7 7 7 6 5 5 4 4 4 4 4 3 2 2 2 2 2 2 2 2 2 2 2 2 2 2 2 2 2 2 2 2 2 2 2 2 1 1 1 1 1 1 1 1 1 1 1 1 1 1 1 1 2 2 2 2 2 3 3 3 4 4 4 4 4
9 9 9 9 9 9 9 9 9 9 9 9 9 8 8 8 8 8 7 7 7 7 7 6 5 5 5 4 4 4 4 3 2 2 1 1 1 1 2 2 2 2 2 2 2 2 2 2 2 2 2 2 2 2 2 2 2 2 2 2 2 2 2 2 2 2 2 2 2 2 2 2 2 2 3 3 3 3 3 4 4 4 4 4 4
9 9 9 9 9 9 9 9 9 9 9 9 9 9 8 8 8 8 7 7 7 7 7 6 6 5 5 4 4 4 4 3 2 2 2 1 1 1 1 1 2 2 2 2 2 2 2 2 2 2 2 2 2 2 2 2 2 2 2 2 2 2 2 2 2 2 2 2 3 3 3 3 3 3 3 3 4 4 4 4 4 4 4 4 4
9 9 9 9 9 9 9 9 9 9 9 9 9 9 9 8 8 7 7 7 7 7 7 6 6 5 5 4 4 4 4 3 3 2 2 1 1 1 1 1 2 2 2 2 2 2 2 2 2 3 3 3 3 2 2 2 2 2 2 2 2 2 2 3 3 3 3 3 3 3 3 3 4 4 4 4 4 4 4 4 4 4 4 4 4
9 9 9 9 9 9 9 9 9 9 9 9 9 9 9 8 8 7 7 7 7 7 7 6 6 6 5 5 4 4 4 4 3 3 2 2 2 2 1 2 2 2 2 2 2 2 2 2 2 2 3 3 3 3 2 2 3 3 3 3 3 3 3 3 3 3 3 3 4 4 4 4 4 4 4 4 4 5 5 5 5 5 5 5 5
9 9 9 9 9 9 9 9 9 9 9 9 9 9 8 8 8 7 7 7 7 7 7 6 6 6 5 5 5 5 4 4 3 3 3 2 2 2 2 2 2 2 2 2 2 2 2 2 2 2 2 3 3 3 3 3 3 2 3 3 3 2 3 3 3 3 3 4 4 4 4 4 4 4 4 5 5 5 5 5 5 5 5 5 5
9 9 9 9 9 9 9 9 9 9 9 9 9 8 8 8 8 7 7 7 7 7 7 6 6 6 5 5 5 5 4 4 3 3 3 3 3 2 2 2 2 2 2 2 2 2 2 2 2 2 2 2 2 2 2 2 2 2 2 3 2 2 2 2 3 3 3 4 4 4 4 4 4 5 5 5 5 5 5 5 5 5 5 5 5
9 9 9 9 9 9 9 9 9 9 9 9 8 8 8 8 7 7 7 7 7 7 7 6 6 6 6 5 5 5 5 4 4 3 3 3 3 3 3 2 2 2 2 2 2 2 1 1 1 2 2 2 2 2 2 2 2 2 2 2 2 2 2 2 2 3 3 3 4 4 4 4 4 4 5 5 5 5 5 5 5 5 5 5 5
9 9 9 9 9 9 9 9 9 9 9 9 8 8 8 8 7 7 7 7 7 7 7 6 6 6 6 5 5 5 5 4 4 4 4 3 3 3 3 3 3 2 2 2 2 2 1 1 1 2 2 2 2 2 2 2 2 2 2 2 2 2 2 2 2 3 3 3 3 4 4 4 4 4 4 5 5 5 5 4 4 5 5 5 5
9 9 9 9 9 9 9 9 9 9 9 9 8 8 8 8 7 7 7 7 7 7 7 6 6 6 6 5 5 5 5 5 4 4 4 4 3 3 3 3 3 3 2 2 2 2 2 2 2 2 2 2 2 2 2 2 2 2 2 2 2 2 2 2 2 2 3 3 3 3 4 4 4 4 4 4 4 4 4 4 4 4 4 4 5
9 10 9 9 9 9 9 9 9 9 9 9 9 8 8 8 8 7 7 7 7 7 6 6 6 6 6 5 5 5 5 5 4 4 4 4 4 3 3 3 3 3 3 2 2 2 2 2 2 2 2 2 2 2 2 2 2 2 2 2 2 1 1 1 2 2 2 2 3 3 3 3 4 4 4 4 4 4 4 4 4 4 4 5 5
9 10 9 9 9 9 9 9 9 9 9 9 9 8 8 8 8 7 7 7 7 7 7 6 6 6 6 6 5 5 5 5 4 4 4 4 4 3 3 3 3 3 3 2 2 2 2 2 2 2 2 2 2 2 2 2 2 1 1 1 1 1 1 1 1 1 2 2 2 3 3 3 3 4 4 4 4 4 4 4 4 4 4 4 4
9 9 9 9 9 9 9 9 9 9 9 9 9 8 8 8 8 7 7 7 7 7 7 6 6 6 6 6 5 5 5 5 5 5 4 4 4 4 3 3 3 3 3 3 3 2 2 2 2 2 2 2 2 2 2 2 1 1 1 1 1 1 1 1 1 1 2 2 2 2 2 3 3 3 3 3 3 3 4 4 4 4 4 4 4
Height
846 846 846 845 845 844 844 843 843 842 840 839 838 837 836 834 833 831 829 827 825 823 821 819 817 816 813 811 810 808 806 803 801 798 796 794 792 789 787 785 783 781 779 777 775 774 772 770 770 769 770 770 769 769 769 769 770 771 772 773 775 777 778 779 778 777 777 778 779 781 782 784 785 786 789 791 793 795 797 799 801 802 804 806 808
848 847 847 846 846 846 846 845 844 843 841 840 839 838 837 836 834 832 830 829 827 825 823 821 818 816 814 813 811 810 807 805 802 799 796 794 791 789 787 784 782 780 777 775 773 772 770 768 767 767 767 767 766 766 766 766 766 767 768 769 770 772 774 774 774 774 775 775 776 778 779 781 782 783 785 787 788 791 793 795 798 800 801 803 805
849 848 848 847 847 847 847 846 845 843 842 841 840 839 838 837 835 833 831 830 828 826 824 822 820 818 816 814 813 811 809 806 804 801 798 794 791 788 786 783 781 778 776 774 772 770 768 766 765 764 764 764 763 763 763 763 763 763 764 764 766 768 769 770 771 771 771 772 773 775 777 777 778 779 781 783 785 787 789 791 794 796 799 801 802
850 849 849 849 849 848 848 847 845 844 842 842 841 840 839 837 836 834 832 831 829 827 825 823 821 819 817 816 814 813 810 807 804 801 798 795 792 788 785 782 780 777 774 772 770 768 767 764 763 762 762 761 761 760 760 759 759 760 759 759 761 763 764 766 768 768 768 769 771 772 774 774 775 777 779 781 783 783 785 788 790 793 795 797 800
851 850 850 849 849 849 848 847 845 844 843 843 842 841 839 838 836 835 833 831 830 828 826 824 822 820 819 818 816 814 811 808 804 801 798 795 791 788 784 781 778 775 773 771 769 767 764 762 760 759 759 758 757 757 756 756 756 756 755 755 757 759 760 761 763 765 766 766 767 769 771 772 773 775 776 778 780 782 784 786 788 790 793 796 798
852 851 851 850 850 849 848 847 846 845 844 844 843 842 840 839 837 835 834 832 831 829 827 825 823 822 820 818 816 814 812 809 805 801 797 793 790 786 783 780 777 774 771 768 766 764 762 760 758 757 756 755 754 753 752 752 752 752 752 752 753 754 756 757 758 760 762 762 763 766 768 769 770 772 773 775 776 779 782 786 787 789 791 793 795
853 852 851 850 850 849 848 847 846 846 845 845 844 843 841 840 838 836 835 833 832 830 828 826 824 823 821 819 817 815 812 809 805 801 797 793 789 785 782 779 775 772 769 767 764 762 760 757 756 754 753 752 750 749 749 749 748 748 748 749 750 750 751 753 754 756 757 758 761 763 764 764 766 768 770 773 775 777 780 783 785 787 788 789 790
853 852 851 850 850 850 849 848 847 846 846 846 845 844 842 841 839 838 836 834 833 831 829 827 825 823 821 819 818 815 812 809 805 801 797 793 789 785 782 779 775 771 768 765 762 760 757 755 754 752 751 749 748 746 746 746 746 745 745 746 746 746 747 749 751 752 753 755 757 760 760 761 763 765 767 770 773 776 777 778 779 780 782 784 786
854 853 852 851 851 851 850 848 848 847 847 846 846 845 843 842 840 839 837 835 834 832 830 828 826 824 822 820 818 815 812 809 806 803 799 794 789 786 782 779 775 771 767 764 761 758 755 753 751 750 748 746 745 743 742 742 742 742 742 743 743 743 743 745 746 748 750 751 753 755 757 757 759 761 763 765 766 767 771 773 774 775 777 780 783
854 853 852 852 852 851 850 849 849 848 847 847 846 846 845 843 841 840 838 836 835 833 831 829 827 825 823 820 818 816 813 810 808 804 800 795 790 786 783 779 776 772 768 764 760 757 754 751 749 747 745 743 742 740 739 739 738 737 738 739 739 739 739 740 741 743 745 747 748 750 751 753 754 757 758 758 760 762 765 768 770 772 776 779 782
855 854 853 853 852 852 851 851 850 849 849 848 847 847 846 844 842 841 839 838 836 834 832 830 828 826 824 821 819 816 814 811 808 803 799 796 791 787 784 780 776 773 769 765 761 757 753 750 747 745 743 741 739 737 735 735 734 734 734 734 735 735 735 736 737 738 739 740 742 744 746 748 750 751 753 754 757 759 760 762 764 768 772 775 778
856 855 854 854 853 853 852 852 851 851 850 850 849 848 847 845 844 842 840 839 837 835 833 831 829 827 824 822 820 817 815 812 808 803 799 796 792 788 785 781 777 773 770 766 763 758 754 749 745 743 741 739 737 734 732 731 730 730 730 730 731 731 731 731 732 733 734 735 737 738 740 743 745 747 748 750 753 755 756 758 760 763 766 768 771
857 856 856 855 854 854 854 853 853 852 852 851 850 849 847 846 844 843 842 840 838 836 834 832 830 828 825 823 820 817 815 812 808 804 800 796 792 788 785 782 778 774 771 767 763 759 755 750 745 742 739 737 735 732 730 728 727 726 726 726 726 726 727 727 728 728 730 732 733 733 736 738 740 742 743 745 747 750 753 755 757 758 761 762 763
857 857 857 856 855 855 855 854 854 853 853 852 851 849 848 846 845 844 843 841 839 837 835 833 831 829 826 823 821 818 815 812 808 804 800 796 792 788 785 782 778 775 771 768 764 760 756 752 747 743 738 735 734 731 729 726 724 722 721 720 720 720 721 723 724 725 726 728 728 729 732 734 736 737 739 740 742 744 747 749 750 752 755 758 760
858 858 857 856 856 856 856 855 855 854 854 853 851 850 849 847 846 845 844 842 840 838 837 834 832 830 827 825 822 819 816 813 809 805 800 796 792 788 785 782 778 774 771 768 764 761 756 752 749 744 739 735 733 731 728 724 721 719 717 715 714 715 715 716 718 720 722 723 724 725 728 730 732 733 734 736 738 739 740 742 744 748 753 756 759
859 858 857 857 857 857 857 856 856 855 854 853 852 850 849 848 847 846 845 843 842 840 838 836 833 831 828 826 823 820 817 814 810 806 801 796 792 788 784 781 778 774 771 768 764 761 757 753 749 744 739 735 731 728 726 723 719 716 714 712 710 711 711 712 714 715 717 719 719 721 723 726 728 728 730 733 736 738 741 744 746 748 752 755 757
859 858 858 858 858 858 858 857 856 856 855 853 852 851 850 849 848 847 846 844 842 840 838 837 834 832 829 826 823 821 817 814 811 807 802 798 793 788 785 781 778 775 771 768 765 761 757 754 750 744 739 734 729 725 723 720 716 713 712 710 709 708 708 709 710 711 713 714 716 717 719 722 724 725 727 730 732 734 738 743 745 746 748 751 754
859 859 858 859 859 859 858 858 857 857 855 854 853 852 851 850 849 848 846 845 843 841 840 838 835 833 830 828 825 822 818 815 812 808 804 799 795 791 787 783 779 775 771 768 765 761 757 753 750 745 740 734 728 724 720 717 713 710 709 708 706 705 705 705 706 707 709 711 712 714 716 718 720 722 724 726 729 730 732 734 738 741 743 746 749
860 859 859 860 860 859 859 859 858 857 856 855 854 853 852 851 850 849 847 846 844 843 841 839 836 834 831 829 826 823 820 816 813 809 805 801 797 793 789 785 781 776 772 768 764 760 756 752 748 745 740 734 728 722 718 714 710 706 705 705 703 701 701 702 703 703 704 706 708 709 712 713 715 717 720 723 725 727 727 729 732 736 738 740 743
860 860 860 860 860 860 859 859 859 858 857 856 855 854 853 852 851 850 848 847 845 844 842 840 837 835 832 829 827 824 820 817 814 810 807 803 799 795 791 787 783 778 774 769 764 760 756 751 747 743 738 733 727 721 715 711 706 702 700 700 698 697 697 699 700 701 701 703 704 706 707 708 711 714 717 719 722 723 725 727 729 730 732 735 737
861 861 861 861 861 861 860 859 859 859 858 857 856 855 855 854 852 851 850 848 846 844 842 840 838 835 833 830 827 824 821 818 814 811 808 804 801 797 793 789 785 780 776 772 767 762 757 752 747 742 737 732 726 720 713 707 701 697 694 693 693 694 695 697 698 699 700 701 702 703 704 706 708 711 713 716 718 720 722 724 726 726 727 730 733
862 861 861 861 861 861 861 860 860 860 859 858 857 857 856 855 854 852 851 849 847 845 843 841 838 836 833 831 828 825 822 819 815 812 808 805 802 799 795 792 788 783 777 773 769 765 760 755 749 744 739 733 726 720 713 705 698 693 690 689 690 691 693 694 695 697 699 700 701 703 704 705 707 709 711 712 714 717 719 721 723 724 726 727 729
862 861 861 861 861 861 861 861 860 860 860 859 858 857 857 856 854 853 852 850 848 846 844 842 839 836 834 831 828 826 823 820 816 813 809 806 803 800 797 793 789 785 780 775 771 767 762 757 751 746 740 734 727 722 715 707 700 694 688 687 688 689 690 691 694 695 697 699 702 703 704 705 706 708 710 711 713 715 716 719 721 723 725 727 729
862 861 861 862 862 862 862 862 861 861 861 860 859 858 858 857 855 854 853 851 849 847 845 843 840 837 834 831 829 826 823 820 817 814 811 807 804 801 798 794 790 786 782 778 773 769 764 759 754 748 742 736 730 724 717 711 705 698 691 689 690 691 691 692 693 695 697 699 703 705 707 707 707 708 710 711 712 714 716 718 721 723 725 727 729
862 862 862 862 863 863 863 863 862 862 861 861 860 859 858 858 856 855 854 852 850 848 846 844 841 839 836 833 830 827 824 820 817 814 811 808 805 802 799 795 792 788 783 779 775 771 766 761 756 750 744 739 733 726 720 715 711 705 698 695 694 696 698 697 695 695 698 702 704 707 710 709 708 710 713 713 712 714 717 719 722 724 726 727 730
863 863 863 863 864 864 864 863 863 863 862 861 861 860 859 858 857 856 855 853 851 850 847 845 843 840 837 834 831 828 825 821 818 815 812 809 806 803 800 797 793 789 785 781 777 772 767 762 757 752 747 742 736 731 726 721 715 710 706 703 701 702 705 704 699 696 699 705 707 709 712 713 713 715 716 715 714 716 720 721 724 727 728 729 732
864 864 864 864 864 864 864 863 863 863 863 862 861 860 860 859 858 857 856 854 852 850 848 846 844 842 839 836 833 830 826 822 819 815 812 810 807 805 801 798 794 790 786 782 778 773 769 765 760 755 749 744 740 735 731 726 721 717 714 712 711 711 712 713 708 701 701 707 711 713 715 716 718 719 719 718 718 721 723 724 726 730 731 731 734
865 865 865 865 865 864 864 864 863 863 863 862 862 861 860 859 859 857 856 855 853 851 850 848 845 843 841 838 835 831 827 824 821 818 815 812 809 807 804 800 797 793 789 785 780 776 772 766 761 756 751 747 743 740 736 733 729 727 724 721 720 719 719 720 716 709 707 711 715 716 718 719 721 722 722 722 724 726 727 727 729 732 734 734 737
865 866 865 865 865 865 864 864 864 863 863 863 862 861 861 860 859 858 856 855 854 852 851 849 847 845 842 840 837 833 829 826 824 822 819 816 813 810 806 803 800 796 793 789 784 779 774 769 765 761 757 754 750 747 744 741 738 735 733 730 728 727 727 728 725 720 718 718 720 721 722 724 726 727 727 728 730 732 732 732 733 735 736 737 740
865 866 866 866 866 865 865 865 864 864 863 863 862 862 861 860 859 858 857 856 854 853 851 850 848 846 844 842 839 836 834 831 827 824 821 818 815 812 809 806 803 800 796 791 786 782 778 775 771 768 765 761 758 755 753 750 747 744 742 740 738 736 736 737 735 732 729 727 727 727 728 729 731 732 732 734 736 737 738 738 738 739 741 742 745
865 866 866 866 866 866 866 865 864 864 864 863 863 862 861 860 859 858 857 856 855 854 852 851 849 847 845 843 841 839 836 832 828 825 822 819 816 814 811 808 805 802 798 794 789 786 783 781 778 775 772 768 766 763 760 757 754 753 750 748 746 745 744 744 743 741 739 737 735 734 734 735 736 737 738 739 741 742 743 744 744 745 747 749 751
865 866 866 866 866 866 866 865 865 864 864 864 863 862 861 861 860 858 857 856 855 854 853 851 850 848 846 844 842 840 836 833 829 826 824 821 818 815 813 810 807 804 801 796 792 790 788 786 783 780 778 775 772 770 767 764 762 760 758 755 754 753 752 751 750 749 747 745 743 742 742 742 743 744 745 746 747 748 749 750 751 752 753 755 757
865 865 866 866 866 866 865 865 865 864 864 864 864 863 862 861 860 858 857 856 855 854 853 852 851 849 847 845 843 841 837 834 831 828 825 823 820 817 815 813 810 807 803 799 797 795 793 791 789 786 783 781 778 776 773 771 769 767 765 763 761 760 759 757 756 754 754 752 750 749 749 749 750 751 752 752 753 754 755 756 757 758 760 762 765
865 865 865 865 866 866 865 865 865 864 864 864 863 863 862 861 860 859 857 856 855 854 853 852 851 849 848 846 844 842 839 835 833 830 827 825 822 819 817 815 812 809 806 803 802 800 798 796 794 791 789 786 784 782 779 777 775 773 771 769 767 766 764 763 761 760 759 758 756 756 756 756 756 757 757 758 758 759 760 762 763 764 765 767 770
865 865 865 865 866 866 865 865 865 865 864 864 863 863 862 861 860 859 857 856 855 854 853 853 851 850 848 846 844 843 840 837 834 832 829 827 824 822 819 816 813 811 809 807 806 804 802 800 798 796 794 792 789 787 785 783 781 779 777 775 773 772 770 768 767 766 765 763 762 762 762 762 762 762 762 762 763 764 765 767 768 769 770 772 774
865 865 865 866 866 866 865 865 865 865 864 864 864 863 862 861 860 859 858 857 856 854 853 853 852 851 849 847 845 844 841 838 836 833 831 829 826 823 821 818 816 814 812 811 809 807 805 804 802 800 798 796 794 792 790 787 786 784 782 781 779 777 776 774 773 772 770 769 769 769 768 768 767 767 767 767 768 769 770 771 773 774 775 776 777
865 865 865 866 865 865 865 865 865 865 864 863 863 863 862 861 860 860 859 858 856 855 854 853 852 851 849 847 846 845 842 840 838 835 833 831 828 826 823 821 819 818 816 814 812 810 809 807 805 803 801 799 797 796 794 792 790 788 786 785 784 782 781 780 778 777 776 775 774 774 774 773 773 773 773 773 774 775 775 776 777 779 780 780 781
865 865 865 865 865 865 865 865 864 864 864 863 862 862 861 861 860 860 859 858 857 855 854 853 852 851 849 848 847 845 844 841 839 836 834 832 830 828 826 824 822 821 819 817 816 814 812 810 808 806 804 803 801 799 798 796 794 793 791 790 788 787 785 784 783 781 780 780 779 779 779 779 778 778 778 778 779 780 780 781 782 783 784 784 785
865 865 865 865 865 865 864 864 864 864 863 863 862 861 861 860 860 859 859 858 857 856 854 853 853 851 850 849 848 846 844 842 839 837 835 834 832 830 828 827 825 823 821 820 818 816 815 813 811 809 807 806 804 803 801 800 798 797 795 794 792 791 789 788 787 785 784 784 784 784 784 783 783 782 782 783 783 784 784 785 786 786 787 787 788
864 865 865 864 864 864 864 863 863 863 862 862 861 860 860 859 859 859 859 858 857 856 854 854 853 851 850 849 848 847 845 842 841 839 837 835 834 832 830 829 827 826 824 822 821 819 817 815 814 812 810 809 807 806 804 803 802 800 799 797 796 795 793 792 791 789 789 789 789 788 788 787 787 786 786 786 787 787 788 788 789 789 790 790 791
864 864 864 864 864 864 863 863 863 862 862 861 860 860 859 859 859 859 858 857 857 855 854 854 853 852 850 850 849 847 845 844 842 841 839 837 836 834 833 831 830 828 827 825 823 822 820 818 816 815 813 811 810 809 807 806 804 803 802 801 800 799 797 796 795 794 793 793 793 792 791 790 790 790 790 790 790 791 791 791 792 793 793 794 794
863 863 863 863 863 863 863 862 862 861 861 860 860 859 858 858 858 858 858 857 856 855 854 854 853 852 851 850 849 848 846 845 843 842 840 839 837 835 834 833 831 830 829 827 826 824 823 821 819 817 816 814 813 811 810 809 808 806 805 804 803 802 801 800 799 798 797 796 796 795 794 793 793 793 793 793 793 793 793 794 795 795 796 797 797
862 862 862 862 862 862 862 861 861 861 860 859 858 858 857 857 858 858 857 857 856 855 854 853 853 852 851 851 850 848 847 845 844 843 841 840 838 837 835 834 833 832 830 829 828 826 824 823 821 820 818 816 815 814 813 812 810 809 808 807 806 805 804 803 802 801 800 799 799 798 797 796 796 796 796 796 796 796 796 796 797 798 798 799 800
861 861 861 861 861 861 861 860 860 859 859 858 858 857 857 857 857 857 857 856 855 854 854 853 853 852 851 851 850 849 847 846 845 843 842 841 839 838 836 835 834 833 832 830 829 828 826 825 823 822 820 819 817 816 815 814 813 812 811 809 808 807 806 806 805 804 803 802 801 800 800 799 799 798 798 798 798 798 798 799 799 800 800 801 802
860 860 860 860 860 860 860 859 859 858 858 858 857 857 857 857 857 857 856 856 855 854 853 853 853 852 851 851 850 849 848 846 845 844 843 842 840 839 837 836 835 833 832 831 830 829 827 826 825 824 822 821 820 818 817 816 815 814 813 812 811 810 809 808 808 807 806 805 804 803 803 802 802 801 801 801 801 801 801 801 802 802 802 803 803
859 859 859 859 859 859 859 859 858 858 857 857 857 857 857 857 857 856 856 855 854 854 853 853 852 852 851 850 850 849 848 847 846 845 844 842 841 840 838 837 835 834 833 832 831 830 829 827 826 825 824 823 822 821 820 819 818 817 815 814 813 812 812 811 810 809 808 808 807 806 805 805 804 804 804 804 804 804 804 804 804 804 804 805 805
858 858 858 858 858 858 858 858 857 857 857 856 856 856 856 856 856 856 855 854 854 853 853 852 852 851 851 850 849 849 848 847 846 845 844 843 842 840 839 838 836 835 834 832 831 830 830 829 828 827 826 824 823 822 821 820 819 818 817 816 815 814 813 813 812 811 811 810 809 808 808 807 807 806 806 806 806 805 805 806 806 806 806 806 807
856 856 857 857 857 857 857 857 856 856 855 855 855 855 855 855 855 855 854 854 853 853 852 852 851 851 850 849 849 848 847 847 846 845 844 843 842 841 840 838 837 836 834 833 832 831 830 830 829 828 827 826 825 824 823 821 820 819 818 817 816 815 814 814 814 813 812 812 811 811 810 809 809 808 808 808 808 807 807 807 808 808 808 808 808
855 855 855 855 856 856 856 855 855 855 854 854 854 854 853 853 853 853 853 853 852 852 851 851 850 850 849 849 848 848 847 846 846 845 844 843 842 841 840 839 838 837 835 834 833 832 831 830 830 829 828 827 826 825 824 823 821 820 819 818 817 816 815 815 814 814 814 813 813 812 812 811 811 810 810 810 809 809 809 809 809 809 809 809 810
853 853 854 854 854 854 854 854 854 853 853 853 852 852 852 852 852 852 852 852 851 851 850 850 850 849 849 848 847 847 846 846 845 844 843 843 842 841 840 839 838 837 836 835 833 833 832 831 830 829 828 827 826 825 824 823 822 821 820 819 818 817 816 815 815 815 814 814 814 813 813 813 812 811 811 811 811 811 811 811 811 811 811 811 811
852 852 852 852 852 852 852 852 852 851 851 851 851 851 851 851 851 851 851 850 850 850 849 849 849 848 848 847 847 846 845 845 844 843 843 842 841 841 840 839 838 837 836 835 834 833 832 831 831 830 829 828 827 826 825 824 823 822 821 820 818 817 816 816 815 815 815 815 814 814 814 814 813 813 812 812 812 812 812 812 812 812 811 811 811
Wind_Speed
25 24 24 24 24 24 24 24 23 23 23 23 22 22 22 22 23 23 23 24 25 25 25 24 24 23 23 25 26 23 26 31 32 33 34 33 32 30 29 28 27 25 23 22 22 21 20 21 22 25 27 27 28 29 29 30 31 30 29 29 28 29 28 22 13 10 14 19 22 25 28 29 32 36 36 36 36 35 34 33 34 34 35 37 35
25 24 24 24 23 22 22 23 23 23 23 23 23 22 21 22 23 23 23 24 24 25 25 24 24 23 23 24 24 24 29 33 33 35 36 35 34 33 31 30 29 27 26 24 23 22 22 21 21 23 26 28 29 29 29 31 30 30 30 29 29 31 30 27 20 13 12 16 19 22 27 29 32 34 37 38 38 37 36 36 36 36 37 38 36
24 25 25 25 25 24 23 23 23 23 23 23 23 22 21 21 23 24 24 23 24 26 25 25 25 23 23 24 23 24 30 33 33 36 37 35 34 33 31 31 30 28 27 26 25 23 22 22 23 22 23 26 29 30 30 30 30 30 31 31 30 30 31 30 26 18 15 18 19 20 24 29 32 34 37 39 39 39 39 39 39 38 37 38 37
24 25 25 25 24 24 24 24 24 25 24 23 22 22 21 21 22 24 24 24 25 26 27 26 25 23 22 24 22 23 28 32 35 39 40 37 33 33 32 31 30 29 27 26 25 24 23 23 24 24 22 24 26 29 29 29 29 29 30 31 31 30 31 32 30 24 19 17 20 23 25 28 31 32 34 36 37 39 40 39 39 39 39 39 38
24 24 24 24 23 23 23 24 25 25 25 25 24 24 23 21 22 23 24 24 24 26 27 26 26 24 22 22 22 24 28 31 35 38 40 39 36 34 33 31 30 29 28 26 25 25 24 23 24 25 23 22 24 26 28 29 29 29 29 30 30 30 30 32 32 28 22 18 20 23 23 25 27 29 32 34 32 32 33 35 36 36 36 37 38
24 24 24 24 24 24 23 23 24 24 25 26 26 26 26 24 23 23 24 23 23 25 27 26 25 24 22 22 23 26 29 31 33 37 39 41 41 37 33 32 31 30 28 27 26 26 25 24 23 24 24 24 24 26 28 29 30 29 28 29 30 30 29 30 30 28 26 23 20 20 22 25 24 25 30 35 33 32 31 28 28 31 33 35 37
23 23 23 24 25 25 25 23 23 23 23 25 25 26 27 26 25 24 24 23 22 23 26 25 25 24 24 24 25 26 30 32 35 39 40 41 42 39 34 31 31 30 29 29 28 27 26 25 23 23 25 25 26 27 28 28 29 29 29 29 29 29 29 29 28 27 26 24 20 21 25 27 24 23 28 34 32 29 30 26 23 28 33 35 37
22 23 23 24 25 26 26 25 24 23 22 22 23 25 26 27 27 26 25 24 23 23 25 25 24 25 25 25 25 26 31 34 36 39 41 41 40 38 34 31 30 31 31 31 30 28 27 26 24 23 24 25 26 27 28 28 28 29 29 29 29 29 28 28 28 26 25 24 21 23 26 26 24 22 25 29 25 23 30 33 30 31 34 35 37
24 24 25 25 24 25 27 28 27 25 23 22 21 23 25 26 26 26 26 25 24 24 24 25 25 26 26 26 26 27 31 35 36 38 40 40 39 37 35 33 30 30 32 33 32 31 29 28 26 24 24 25 26 28 29 30 30 30 30 30 30 29 27 27 27 27 25 23 21 23 24 23 24 23 24 29 31 30 34 35 31 31 34 33 32
25 26 27 27 25 25 28 29 28 28 26 24 21 21 24 26 26 26 25 25 25 26 26 26 27 27 27 27 27 28 31 36 38 39 39 38 38 37 36 34 31 29 31 31 31 30 29 29 28 26 25 25 26 28 30 31 31 32 32 31 30 30 28 26 26 27 26 23 21 22 20 20 25 28 27 32 36 33 33 34 30 27 27 23 22
27 27 28 27 25 25 26 27 28 28 28 26 23 21 23 26 26 26 25 25 25 26 28 28 29 29 28 28 28 28 31 37 40 40 39 38 36 35 35 34 32 30 31 30 29 29 29 28 27 26 26 26 27 29 30 31 32 33 34 34 33 32 31 29 26 26 27 24 24 24 22 20 26 31 32 33 33 31 34 37 32 26 24 20 16
27 27 27 27 26 25 24 24 25 26 27 27 25 22 23 25 27 26 25 25 25 26 27 28 29 29 29 29 30 29 31 37 40 40 40 38 36 33 33 34 33 30 30 31 30 31 31 30 28 27 26 25 26 28 30 33 34 34 35 36 37 36 35 33 30 29 28 25 24 25 25 25 28 31 32 32 32 33 35 35 32 29 28 25 21
26 26 26 26 25 24 23 23 23 23 24 25 25 24 24 25 26 26 26 26 27 27 28 28 29 30 30 31 31 30 32 37 40 40 41 40 37 34 32 34 33 29 28 30 31 32 32 30 29 30 29 27 27 26 27 30 33 34 35 35 37 39 39 37 35 33 32 30 27 26 29 30 30 32 36 36 35 34 32 31 33 33 30 30 31
24 24 24 23 23 22 22 23 23 22 22 23 24 24 25 25 25 25 25 26 27 28 28 28 29 29 30 31 31 31 33 37 39 40 41 41 39 35 32 33 33 31 29 30 31 32 32 29 28 31 32 32 30 29 28 27 28 30 33 35 36 38 41 40 38 35 35 34 32 31 33 35 35 36 39 40 39 37 36 36 37 37 34 32 31
23 22 22 21 21 21 22 23 23 23 22 21 21 22 23 23 24 24 25 26 27 27 27 28 28 29 30 30 31 32 33 36 40 41 41 42 41 38 34 33 33 33 32 31 31 33 33 30 29 30 32 34 34 32 30 28 27 27 29 33 35 37 39 41 40 38 37 38 37 35 36 38 38 37 37 37 39 41 41 42 40 37 32 27 23
22 20 20 20 19 20 20 21 22 23 23 21 20 20 20 21 22 24 24 25 26 28 28 27 28 29 30 31 32 33 34 36 39 41 42 43 42 39 36 34 35 34 32 31 34 35 34 32 30 30 33 36 36 33 31 28 28 28 26 29 34 34 35 38 39 39 39 39 38 37 37 36 37 37 36 35 38 38 32 28 29 28 24 19 18
20 19 18 19 19 18 18 20 22 23 23 22 21 20 19 19 20 22 23 24 25 27 28 28 28 29 31 31 31 33 35 37 39 41 42 43 42 40 37 34 35 35 32 31 34 35 34 32 31 31 35 38 37 35 32 29 28 28 26 26 29 29 29 32 34 35 37 38 38 38 37 36 36 36 36 35 37 37 30 23 25 28 24 17 13
18 18 18 19 19 18 16 17 21 23 23 22 22 21 20 19 18 19 21 22 23 25 27 28 28 29 30 31 31 32 34 37 39 40 42 43 41 40 37 34 35 37 35 32 33 34 35 34 32 32 36 37 36 35 33 30 28 27 25 26 25 24 26 29 30 30 33 35 37 37 36 36 35 34 34 35 35 36 36 33 32 32 27 20 16
16 16 17 19 19 18 16 17 19 23 24 23 22 22 21 21 19 19 20 20 20 21 25 28 29 29 29 30 31 32 33 36 38 39 41 42 41 40 38 35 35 37 36 33 32 35 37 37 36 35 37 36 34 34 33 29 28 26 24 23 23 24 27 29 29 29 30 31 33 34 33 34 34 32 32 33 31 33 39 39 38 36 31 26 24
13 13 15 18 18 17 16 17 18 21 23 23 23 23 22 22 21 21 21 20 20 20 23 26 28 29 29 30 31 32 33 34 37 38 39 40 41 41 39 36 35 36 35 31 31 35 37 38 39 38 38 36 34 34 33 30 27 25 22 21 24 27 28 28 28 28 29 29 28 29 30 29 29 30 32 33 31 33 38 38 38 41 38 31 30
11 10 11 16 18 16 16 17 18 19 21 22 21 21 22 22 22 22 23 23 23 23 23 25 27 28 29 29 31 33 34 34 36 38 38 38 40 41 40 38 36 35 34 30 29 33 35 37 38 39 38 36 34 35 34 30 25 22 22 24 25 29 30 28 27 26 26 26 25 25 26 25 25 27 31 32 31 32 35 34 34 39 40 34 32
12 9 9 12 16 16 15 15 17 18 19 20 20 20 21 22 22 23 23 24 25 24 24 25 26 28 29 29 30 32 35 36 36 37 37 36 37 39 39 39 38 36 34 31 30 31 33 35 36 37 38 36 34 36 35 30 25 19 20 25 25 27 29 28 27 26 25 25 24 23 23 23 23 23 24 26 27 28 30 29 28 29 32 34 36
15 13 11 12 14 15 14 14 15 16 17 18 19 19 19 21 22 22 23 24 24 24 25 26 27 28 29 30 30 31 34 36 35 36 37 35 36 38 39 39 39 36 33 32 31 32 33 34 34 35 37 36 35 36 36 34 31 22 9 15 20 25 27 26 26 26 26 24 22 21 21 22 22 21 20 20 21 22 23 23 22 22 23 26 31
18 17 14 12 14 14 13 12 13 14 15 16 17 18 18 19 20 21 22 23 23 24 25 26 27 28 28 29 30 31 32 34 34 36 36 34 35 37 38 39 39 37 34 32 32 32 33 33 32 33 36 37 36 37 38 38 38 32 19 9 7 14 21 24 26 26 25 24 22 19 17 20 23 23 22 22 22 20 20 19 18 20 21 22 24
20 21 18 14 13 12 11 11 11 13 13 14 15 15 16 17 18 19 20 21 21 22 24 26 27 27 28 28 29 30 32 34 35 36 37 34 33 36 38 38 38 36 34 33 32 32 32 32 32 32 35 38 39 39 40 40 40 38 33 27 22 16 13 18 25 27 24 22 23 22 20 21 25 26 26 27 27 25 25 25 24 23 23 23 23
21 21 20 17 14 12 10 10 10 11 12 12 12 13 14 15 15 16 18 19 19 20 22 25 26 27 28 28 28 30 32 34 35 37 37 35 33 34 36 37 38 36 34 33 33 33 33 33 34 34 34 36 38 40 41 41 42 43 41 38 35 29 21 14 21 30 28 23 23 24 23 25 27 28 28 29 30 30 30 31 31 29 29 29 27
18 18 18 18 16 14 13 12 10 10 10 10 10 11 12 13 13 14 15 17 18 19 21 23 25 26 27 27 27 29 31 33 35 37 37 34 33 33 34 35 37 37 35 34 34 34 34 35 35 36 36 35 35 38 40 42 43 44 43 42 41 38 32 23 20 29 31 27 24 24 24 26 27 27 29 30 30 29 30 32 32 30 30 33 32
15 15 14 14 14 14 14 13 12 11 10 9 9 10 11 12 11 11 13 15 16 18 19 21 22 24 25 25 26 28 30 32 34 35 33 31 30 31 31 33 35 35 34 34 34 35 36 37 38 39 39 38 38 38 39 40 41 42 42 42 42 41 38 33 29 30 32 30 27 26 26 27 27 27 29 30 29 27 28 31 31 28 30 34 31
14 14 13 12 11 12 14 13 13 12 11 9 8 8 10 11 10 10 10 12 14 16 17 19 20 22 23 23 24 26 29 31 31 30 28 26 27 27 28 29 31 32 32 33 33 35 36 37 38 38 37 36 37 37 37 37 37 39 39 39 40 40 39 37 34 33 33 32 30 28 28 28 27 28 29 29 27 26 27 29 30 28 29 32 29
13 13 14 13 12 12 14 15 13 12 11 9 8 9 9 10 10 10 9 10 11 14 16 17 18 19 20 20 21 23 26 27 27 26 25 24 25 25 25 26 27 29 32 34 34 34 34 33 34 34 33 32 32 32 33 34 34 35 36 36 36 36 36 34 33 33 34 35 33 31 31 30 29 29 29 29 27 26 27 29 31 31 31 31 28
11 11 13 14 13 12 13 14 13 11 10 10 10 10 10 10 10 10 10 9 9 11 14 16 16 16 17 18 20 23 26 26 25 23 23 25 25 24 24 25 26 27 29 32 33 32 31 29 30 31 31 30 30 30 30 31 32 32 32 34 35 34 33 32 30 30 31 33 33 33 33 32 31 30 30 30 29 29 29 29 31 32 31 30 27
11 11 13 14 13 11 12 13 13 11 8 9 11 12 11 10 10 11 12 10 8 8 11 14 16 15 14 15 19 23 27 27 24 22 23 25 25 23 22 24 26 27 29 31 31 30 30 28 28 29 30 29 29 30 30 30 31 31 31 32 32 33 32 30 29 28 28 28 29 30 30 30 29 29 28 28 29 30 30 31 31 32 32 31 29
12 10 12 12 11 10 10 11 12 11 9 9 11 11 10 9 9 11 13 12 9 7 9 12 15 15 13 14 17 22 26 26 23 22 23 24 24 24 23 23 25 27 29 30 29 28 29 29 28 29 30 30 30 31 31 31 31 31 31 31 31 31 30 29 29 29 28 27 27 27 27 26 26 25 24 24 24 25 26 26 27 29 29 28 26
12 10 10 11 10 8 8 9 11 12 11 9 9 10 10 9 8 10 11 12 11 9 8 11 14 14 13 14 17 21 25 25 22 20 22 22 23 24 24 24 26 28 28 28 27 26 27 28 28 28 29 30 30 31 31 31 31 31 31 31 31 30 29 29 29 29 28 28 27 26 25 24 23 22 22 21 22 22 22 22 22 24 24 23 22
12 10 9 9 8 7 8 9 10 11 10 9 8 9 10 9 8 9 10 11 11 9 7 10 12 13 13 14 17 20 25 25 20 18 20 21 21 23 24 25 27 28 28 26 25 25 25 26 26 27 28 28 29 29 29 30 30 29 30 30 30 30 29 28 28 28 27 28 27 26 25 25 23 22 21 20 20 21 21 21 21 21 21 21 20
12 11 9 7 7 8 8 8 9 10 10 9 8 8 8 8 9 9 9 9 10 9 7 9 11 12 12 14 16 20 24 24 19 16 18 20 21 22 24 25 25 26 26 25 23 23 24 25 25 26 26 26 27 28 27 28 28 27 27 27 28 28 28 27 27 26 26 27 26 26 25 25 23 22 22 21 21 21 21 21 21 21 21 20 19
10 9 8 7 6 7 7 7 7 8 9 10 9 7 6 7 9 9 9 9 9 9 8 8 10 12 13 13 15 20 23 22 19 16 16 18 20 21 23 24 24 24 24 24 23 22 23 24 24 24 25 25 25 25 24 24 25 25 26 26 26 25 25 25 24 25 25 25 25 24 23 23 22 21 20 20 19 20 21 21 21 21 20 20 19
7 7 7 6 5 5 5 6 5 5 7 7 7 6 5 5 7 8 8 8 9 9 9 8 9 11 11 11 14 19 22 23 22 19 17 17 19 21 22 22 23 23 23 23 22 22 22 22 22 22 22 22 22 22 22 21 22 23 24 25 25 24 24 23 23 23 23 23 22 21 21 20 20 20 18 17 16 17 19 20 20 19 18 17 17
4 4 3 3 4 5 4 4 3 3 5 7 8 6 4 3 4 6 7 8 8 8 8 8 8 9 9 9 13 18 22 22 23 22 19 17 18 19 20 21 22 22 21 21 21 21 21 21 21 21 21 20 20 20 20 20 20 20 21 22 23 24 24 24 23 22 21 20 20 19 18 17 17 17 16 15 13 13 15 16 16 15 14 14 16
2 2 1 1 3 4 5 5 4 2 4 7 9 9 6 4 2 4 6 7 7 8 8 6 7 7 7 8 12 18 20 20 19 19 19 17 15 16 18 20 21 22 22 20 20 20 20 20 21 21 20 20 19 19 19 19 19 19 20 20 21 23 24 24 23 21 20 19 18 18 16 14 13 13 14 14 12 10 12 13 13 13 13 14 16
1 1 1 1 3 4 5 5 5 4 5 6 8 11 9 4 1 3 5 6 6 7 7 5 5 6 6 7 10 15 18 18 17 18 18 16 14 13 15 17 18 20 21 21 20 19 19 19 20 21 20 19 18 18 17 17 18 19 19 20 21 22 23 24 23 21 19 17 17 16 15 13 11 11 12 12 11 9 10 12 12 13 14 16 18
0 0 3 5 5 4 4 4 4 5 7 8 9 10 9 4 3 3 4 5 6 6 5 4 4 5 6 6 9 13 16 17 16 17 17 16 13 11 11 13 15 16 17 18 18 18 18 18 19 20 20 18 17 16 16 16 16 16 17 18 19 21 22 23 23 21 18 16 15 15 15 14 12 11 11 11 10 10 11 12 13 13 15 16 17
1 1 5 7 6 4 4 3 3 5 8 10 9 8 5 4 6 5 4 5 6 6 4 2 3 4 5 4 7 12 15 15 15 16 16 16 14 10 9 9 11 12 13 15 15 15 17 17 18 18 19 18 15 12 13 14 14 14 15 16 17 19 19 20 22 21 18 15 14 13 12 12 11 10 10 10 10 10 11 12 12 13 13 13 13
2 3 7 8 6 4 4 2 2 5 8 8 7 6 5 6 7 5 5 6 7 6 3 1 2 4 4 3 5 10 12 13 13 14 15 15 14 12 9 9 10 10 11 12 13 14 15 15 16 16 17 18 16 13 11 11 12 13 14 15 16 17 17 17 19 19 17 15 13 12 12 11 11 10 10 10 10 11 12 12 12 12 12 11 10
3 5 9 9 6 4 3 2 3 5 6 6 6 6 6 7 7 5 6 6 7 6 3 2 1 4 4 3 4 8 10 10 11 12 13 14 14 13 12 11 11 10 11 11 12 13 13 13 14 14 15 17 17 16 13 11 11 11 13 14 15 16 15 14 15 16 15 14 13 12 12 11 11 11 11 11 11 11 11 11 11 12 12 11 10
4 6 9 8 6 4 3 1 2 4 5 6 7 7 7 7 6 5 5 6 7 7 4 2 0 3 4 2 2 6 8 8 8 10 11 12 13 14 13 13 12 11 11 11 11 10 11 11 13 14 14 14 15 16 15 13 10 9 10 11 12 12 12 12 11 12 12 12 12 11 11 11 11 10 9 9 9 8 8 8 8 10 11 12 11
4 5 8 8 6 5 4 2 2 3 4 5 6 7 7 6 5 4 3 5 7 7 5 2 0 2 3 3 2 4 6 6 6 8 9 10 11 12 13 14 13 12 11 11 9 8 9 11 12 13 13 13 13 15 16 15 12 9 8 9 9 9 9 9 9 9 9 10 9 9 9 10 11 11 10 8 7 7 6 7 7 8 9 11 12
3 4 7 9 8 6 5 4 3 3 3 3 4 6 6 5 3 2 2 4 6 6 4 2 1 2 3 3 4 4 5 5 4 5 7 8 9 9 11 13 13 13 12 11 9 8 8 10 11 12 13 13 13 14 16 16 14 11 10 9 9 8 7 7 6 6 6 7 7 7 7 7 8 9 10 9 9 8 8 7 6 6 6 7 9
5 6 8 10 10 9 7 5 5 4 4 3 4 4 4 4 3 3 2 3 4 4 3 2 2 2 3 4 5 5 6 6 5 4 5 7 7 7 8 10 11 12 12 11 9 8 7 8 10 11 12 12 12 13 15 16 15 13 12 11 10 9 8 6 5 4 4 5 5 5 6 6 7 8 8 9 8 8 9 8 6 5 4 5 6
7 8 9 8 9 10 9 7 6 7 6 5 4 5 5 5 4 3 3 2 2 2 1 2 3 2 2 3 4 5 6 7 7 6 6 6 6 6 7 7 8 9 11 11 10 8 6 7 9 10 11 11 11 11 13 14 14 14 13 12 11 10 8 6 4 3 2 3 4 4 4 5 5 6 7 8 7 6 6 7 6 5 4 3 4
8 11 11 8 8 10 11 10 9 9 9 8 7 6 5 5 5 4 4 4 3 2 1 1 1 1 1 3 4 5 6 6 7 7 7 7 7 6 6 6 7 7 9 10 10 8 6 7 8 8 9 10 10 11 12 13 12 12 12 12 12 11 9 7 4 3 2 1 1 3 3 3 3 4 5 6 6 6 6 6 6 5 4 3 3
Wind_Direction
75 74 73 71 70 70 67 65 64 62 59 57 55 52 47 44 40 37 35 31 28 26 24 22 19 18 18 18 23 19 6 2 1 356 353 349 346 345 343 341 340 336 330 320 311 303 287 271 263 260 257 252 250 247 242 238 235 230 227 226 222 221 221 215 215 231 229 226 221 215 213 213 211 211 211 213 216 217 217 218 218 213 210 209 210
75 75 73 70 69 70 69 66 64 61 59 56 55 53 50 46 42 39 37 34 32 30 27 24 21 21 20 18 20 16 7 6 6 1 356 350 346 344 341 339 337 334 332 326 319 314 299 278 265 262 260 256 253 250 244 238 233 228 224 222 219 220 220 217 216 221 219 215 214 212 210 208 209 210 208 210 213 213 211 212 215 213 211 210 211
77 76 74 70 70 71 69 66 63 60 57 55 53 53 52 47 42 40 40 38 35 32 30 27 24 24 23 19 19 15 9 9 9 5 2 355 348 343 340 337 334 331 328 326 322 319 308 289 274 267 265 260 255 252 248 240 232 226 222 221 220 221 219 217 216 217 216 215 215 213 206 203 208 210 208 210 213 212 209 209 212 213 212 211 212
78 76 75 73 72 72 70 68 64 60 57 55 54 52 51 46 41 40 41 40 37 33 31 30 28 27 24 22 21 15 10 8 8 7 5 360 350 344 340 335 331 328 324 322 321 320 313 298 284 277 271 265 258 252 249 243 234 225 221 220 222 223 221 219 219 218 217 215 217 220 213 205 208 210 207 208 211 210 206 206 209 212 211 212 213
79 78 76 74 73 73 71 68 65 62 58 56 55 52 49 45 41 39 40 41 39 34 32 31 30 30 27 24 22 16 10 8 6 5 4 1 354 346 341 336 331 327 322 319 317 315 313 304 292 284 277 269 262 255 250 246 239 229 223 221 222 223 222 220 219 217 217 214 212 217 215 209 207 209 206 203 204 204 202 203 206 208 209 210 212
81 81 79 76 74 72 71 67 65 63 60 57 56 53 50 46 43 42 42 42 40 35 34 34 33 32 30 26 22 16 11 8 6 4 2 1 358 352 344 339 335 331 325 321 317 311 309 305 297 290 282 273 265 259 253 248 241 232 226 225 225 223 221 219 215 213 216 218 210 203 207 208 203 203 206 203 200 198 196 199 205 206 207 209 211
81 80 78 76 73 70 68 65 63 62 60 58 57 54 50 47 45 45 44 44 42 36 35 37 35 33 29 25 21 16 12 9 7 5 3 1 359 355 349 343 340 338 335 330 324 316 309 304 298 294 288 278 268 261 255 251 246 238 231 228 225 221 219 217 214 211 214 220 213 199 203 208 200 196 201 202 200 197 191 189 196 205 209 211 211
78 74 72 73 73 71 67 64 61 60 59 57 57 54 50 46 46 46 46 46 43 37 35 35 32 29 26 22 19 15 12 10 8 5 3 1 0 358 353 346 342 342 342 341 335 328 319 310 301 296 293 286 275 267 258 252 248 244 239 234 227 221 216 213 211 210 211 215 212 203 202 205 200 193 191 191 192 197 196 194 196 200 206 211 213
74 70 67 70 74 73 67 63 60 58 57 56 56 55 50 46 46 46 46 46 42 37 33 31 28 25 23 20 18 15 12 10 8 6 4 2 1 1 357 352 347 343 342 342 341 337 331 323 311 301 297 293 284 276 267 256 247 243 242 239 231 224 217 211 208 207 207 207 206 201 199 201 198 188 180 184 192 199 200 200 202 202 203 207 210
73 70 67 69 76 76 67 62 59 57 56 57 58 58 51 46 45 45 44 43 39 35 33 32 29 26 24 21 18 15 12 9 7 8 8 5 2 1 359 357 354 350 346 343 341 340 337 331 322 311 304 300 294 286 276 265 254 247 244 241 236 229 221 214 207 205 205 203 199 195 194 199 199 192 188 194 199 199 196 198 203 202 197 197 202
75 72 70 71 77 77 69 63 60 58 58 58 60 60 52 46 44 45 43 41 38 36 34 33 31 27 25 22 18 15 11 8 8 9 10 8 5 2 0 359 357 355 354 351 346 343 340 336 331 323 315 310 304 295 284 273 263 255 250 247 244 237 228 219 210 204 204 204 201 197 194 197 200 199 200 201 199 197 197 200 199 193 188 188 192
78 75 73 75 77 76 71 66 62 60 59 60 60 60 54 48 46 45 44 41 38 36 33 31 28 25 23 21 18 15 11 8 9 9 9 10 8 3 0 0 359 355 352 352 351 348 345 340 336 331 325 317 312 304 292 280 270 263 258 253 250 246 239 230 218 208 203 203 204 202 200 200 202 202 202 201 199 199 201 201 198 193 192 193 192
83 78 77 78 77 75 71 68 66 62 61 60 60 58 55 50 48 46 44 41 38 35 32 29 26 23 21 19 16 14 11 9 9 10 9 9 9 6 2 0 360 355 350 350 352 351 349 345 340 336 332 326 322 319 308 291 278 270 266 261 255 251 248 242 232 220 210 206 206 206 206 204 205 206 205 202 199 198 198 199 199 198 197 199 200
86 82 80 79 77 74 71 69 67 64 62 60 58 56 53 50 49 47 44 41 38 35 32 28 26 23 20 17 15 13 12 10 10 11 9 8 9 8 3 0 360 358 354 352 352 351 351 348 342 338 337 334 330 328 323 310 293 278 268 263 258 252 248 245 239 228 219 213 211 212 213 210 210 212 210 206 202 199 198 199 200 200 201 204 207
89 85 83 81 79 75 71 68 66 63 62 61 57 55 52 49 48 45 42 40 37 35 32 29 26 23 19 16 13 12 12 11 11 12 10 8 8 7 4 1 0 359 357 354 352 352 352 350 345 339 338 338 337 334 329 319 306 292 274 261 257 253 248 244 240 234 228 223 219 218 219 215 212 214 213 209 206 205 205 204 202 200 198 197 198
91 85 84 83 81 78 72 68 65 61 60 60 57 54 50 47 45 41 39 39 37 35 33 30 26 23 19 16 13 12 12 12 12 13 11 9 8 7 4 1 359 358 356 353 353 353 352 350 346 342 339 340 340 338 333 321 307 299 286 265 255 251 248 244 243 239 233 230 228 226 225 220 218 218 218 215 212 209 208 206 201 195 188 184 183
92 85 84 82 80 80 75 70 65 59 57 57 55 51 48 44 41 37 35 34 33 32 31 30 28 24 21 18 14 12 12 13 13 13 13 11 9 7 4 1 358 356 353 351 352 352 352 350 347 345 344 343 342 339 336 327 310 299 291 273 255 246 243 241 239 236 231 230 230 228 226 224 224 222 221 222 220 212 203 199 197 191 184 184 185
93 86 85 83 81 80 77 74 68 60 55 55 54 51 48 44 41 37 33 30 28 27 27 28 29 27 24 22 18 14 13 13 14 15 15 13 10 7 5 0 356 354 351 350 351 352 352 352 351 350 347 346 345 341 337 330 314 297 287 278 259 239 234 235 232 228 225 226 227 225 222 222 224 225 225 228 226 216 206 201 199 193 187 189 188
93 89 88 86 84 81 80 79 71 61 57 57 56 52 50 47 44 41 37 32 28 25 25 27 29 28 27 25 22 18 14 13 15 15 15 15 12 8 6 2 356 353 350 347 348 351 353 353 354 354 351 350 351 345 338 330 314 295 280 272 256 236 230 230 226 222 219 218 220 220 217 218 221 225 227 227 224 218 212 208 202 196 195 194 184
96 93 91 88 86 83 80 79 72 63 60 61 60 57 53 50 47 44 41 36 32 29 27 26 26 26 26 24 23 20 14 11 13 13 13 14 13 10 8 4 357 352 350 346 345 348 352 354 355 355 355 356 358 353 344 333 316 293 269 256 246 237 232 226 220 217 214 210 209 209 208 210 214 215 216 215 213 212 211 210 205 202 201 195 184
98 103 101 92 87 84 82 79 73 66 63 62 62 60 56 53 50 46 42 38 35 32 29 25 23 23 23 22 21 20 16 11 10 11 11 12 14 12 9 6 0 354 350 349 347 346 348 351 354 357 358 360 4 3 354 342 326 297 264 247 242 237 231 220 211 207 201 195 191 189 189 190 193 197 201 203 203 203 204 207 209 208 204 197 188
83 97 110 104 91 84 84 80 74 69 65 61 60 60 58 55 51 47 42 39 37 34 30 24 20 18 19 20 19 19 17 13 11 10 10 11 13 13 11 7 4 359 354 352 350 348 348 350 355 359 2 4 11 12 7 0 351 321 267 245 239 234 225 212 199 190 183 176 169 163 164 166 167 172 180 186 191 196 199 203 207 206 205 202 196
75 82 98 112 101 87 83 80 73 69 65 58 57 58 56 54 50 46 43 39 38 35 30 24 19 16 15 16 17 16 16 15 13 11 10 10 11 12 12 10 7 4 360 355 352 352 352 353 358 5 8 11 16 20 20 19 17 7 306 243 232 220 206 190 178 169 160 153 147 141 141 143 143 144 149 157 168 179 186 191 195 195 196 197 195
74 74 84 108 108 92 83 78 70 65 61 54 54 55 53 51 49 47 44 41 39 36 29 23 19 15 11 10 12 14 14 14 13 12 10 10 11 11 11 10 9 7 5 1 359 358 357 358 4 12 16 17 20 25 28 30 30 31 41 71 140 173 170 160 153 146 137 130 122 114 116 124 126 125 128 132 138 147 154 157 167 176 176 174 174
73 73 79 93 100 92 84 77 68 63 57 50 49 50 48 46 47 47 45 43 40 36 30 24 19 15 10 7 8 12 13 12 11 10 9 10 11 11 10 10 10 9 9 7 6 5 6 8 12 18 21 22 24 27 30 33 36 39 46 56 65 78 107 129 128 120 110 106 106 101 98 104 110 113 118 122 125 127 129 129 132 140 147 148 148
75 75 78 84 87 83 77 71 63 58 52 46 45 45 43 41 43 46 47 44 41 37 30 25 20 15 11 7 9 13 14 11 9 8 8 10 11 10 11 11 11 11 12 12 13 13 14 15 17 20 23 25 27 27 28 33 40 43 45 49 51 48 47 68 102 104 95 89 93 96 97 100 105 110 113 114 115 117 121 122 120 120 127 130 125
73 72 74 79 80 76 71 69 65 58 51 46 43 41 39 38 39 44 47 45 42 38 30 24 20 15 10 9 11 14 13 11 10 8 7 9 10 9 10 12 11 12 14 15 16 16 16 18 21 24 27 28 31 31 30 32 38 40 43 46 48 47 42 41 68 91 94 91 90 92 99 103 104 105 105 105 105 109 117 121 117 114 119 121 114
74 67 66 70 72 69 67 70 71 65 56 47 41 40 41 38 35 40 46 45 41 38 31 25 20 16 12 10 12 13 13 12 11 9 7 9 9 9 10 11 11 14 16 16 17 19 19 20 23 25 27 28 29 31 30 31 34 36 39 44 47 48 46 42 49 68 82 89 90 89 93 96 95 95 96 96 97 102 110 115 113 112 116 115 108
80 70 62 65 70 67 63 67 73 72 63 51 43 45 48 44 36 33 40 43 42 39 33 27 22 19 19 18 16 15 14 11 9 9 9 12 13 12 11 10 11 15 18 20 21 22 21 20 20 21 22 24 25 27 27 29 32 35 38 41 45 48 46 40 39 50 66 77 80 80 83 86 87 89 91 90 91 96 102 105 105 105 107 106 102
82 71 65 71 79 71 61 62 71 73 67 58 53 54 57 54 42 32 31 38 43 41 36 30 25 21 22 23 22 19 14 9 9 12 12 13 16 16 13 11 12 15 18 22 25 24 21 19 18 18 19 21 23 24 26 28 31 33 37 40 43 45 46 41 39 46 58 66 69 72 76 79 80 83 85 85 87 91 94 98 100 99 97 95 93
82 78 76 80 84 74 58 55 60 64 64 62 60 58 60 59 48 35 31 33 39 40 37 34 31 26 23 21 18 16 13 10 13 17 16 14 16 17 14 15 18 18 20 24 26 24 21 18 18 18 19 21 23 24 27 30 32 32 35 39 41 42 44 44 44 49 56 62 64 67 69 71 72 75 79 81 83 87 89 91 93 94 92 91 90
80 90 93 89 81 70 56 47 47 50 57 64 62 58 60 62 51 37 34 35 36 36 35 34 33 31 27 19 13 12 13 13 16 20 18 16 20 22 20 21 23 23 25 28 29 26 23 21 20 20 21 22 23 26 29 32 34 35 36 38 40 41 43 45 49 53 57 62 66 68 69 71 73 74 77 81 83 85 86 87 88 90 90 90 90
75 93 101 92 79 71 58 43 40 46 59 71 67 60 59 60 49 37 36 37 35 30 30 32 33 32 28 20 14 14 16 15 18 23 20 19 26 32 30 28 28 28 29 31 31 29 27 26 25 25 26 26 26 28 31 33 35 38 38 38 39 41 44 49 54 55 55 59 65 69 71 73 76 78 80 83 87 89 90 91 93 96 97 96 97
75 90 102 92 80 69 50 40 51 64 73 79 74 63 59 57 45 35 34 33 30 28 28 30 31 31 26 19 16 18 18 17 20 25 23 23 29 33 32 32 33 32 32 32 32 31 31 30 29 28 29 30 30 30 32 33 34 36 37 38 41 43 45 50 53 53 53 56 60 64 68 70 74 79 81 85 90 94 97 100 103 104 105 106 107
80 87 100 97 79 56 45 57 73 77 74 72 71 64 59 51 39 36 34 29 24 24 26 27 28 28 25 19 18 20 19 17 20 25 26 27 30 31 30 30 30 29 30 31 32 32 31 29 27 25 26 28 29 29 30 31 31 32 33 36 39 41 43 46 48 50 53 55 55 59 63 66 70 76 81 85 91 94 98 103 107 109 110 113 115
86 86 99 99 71 51 62 85 88 74 63 62 61 57 49 37 31 37 38 29 22 20 21 22 23 24 22 19 19 21 20 18 20 25 26 28 32 35 33 30 27 26 27 27 28 30 29 26 23 20 19 19 21 23 24 26 27 29 31 33 35 38 40 43 45 48 51 53 54 57 60 62 66 72 77 83 92 99 103 106 108 111 114 116 117
95 93 101 98 70 59 82 103 92 68 57 54 48 44 37 25 23 28 32 28 24 19 14 14 18 19 19 19 20 22 22 22 24 28 27 28 34 38 37 33 31 30 28 26 25 27 28 25 22 20 18 16 17 18 21 24 28 31 34 35 36 38 39 41 43 46 47 48 50 53 56 58 60 66 73 81 92 103 109 111 111 113 116 117 118
106 104 105 98 78 74 97 115 98 63 47 39 34 32 30 17 10 13 16 19 19 14 8 12 20 19 18 21 22 21 23 26 28 30 31 31 34 38 38 36 34 31 30 29 28 26 26 26 25 23 22 21 21 23 25 29 32 34 35 36 37 37 37 38 40 42 42 43 43 44 49 53 55 60 68 78 91 104 112 114 116 117 119 122 124
134 120 108 97 83 75 85 112 111 54 24 18 13 7 359 350 359 8 6 5 12 10 2 10 26 23 15 19 22 20 24 29 30 30 31 33 33 36 37 37 34 31 30 32 31 28 28 30 29 29 28 26 24 25 28 30 32 33 33 35 36 36 37 38 38 37 37 38 39 38 40 46 52 57 63 70 84 108 119 119 117 119 124 128 131
149 111 68 91 99 81 75 87 89 30 0 6 8 5 352 324 346 23 12 0 7 7 357 8 33 25 8 14 24 24 28 33 32 29 30 31 31 33 36 36 35 34 34 34 33 32 32 33 33 33 33 31 29 28 29 30 32 35 37 40 41 40 39 38 37 36 36 35 35 35 35 40 49 55 57 60 72 102 125 124 115 114 120 126 129
110 79 261 199 117 96 82 77 64 25 359 357 3 6 2 345 5 48 20 4 7 3 354 10 41 25 3 12 25 27 32 36 34 29 29 29 28 32 35 35 35 36 36 37 37 36 35 34 32 33 35 35 33 31 28 28 32 37 40 43 43 42 41 39 37 36 35 33 31 32 35 42 51 55 56 61 73 97 123 130 125 121 123 127 129
239 295 202 173 135 110 93 76 56 18 1 358 1 6 8 22 105 81 22 11 15 5 354 16 47 25 6 12 23 26 32 37 34 29 28 27 25 29 33 33 32 32 32 34 35 32 30 31 30 29 32 34 34 32 29 27 29 33 34 35 36 37 37 36 34 35 35 33 32 36 41 47 54 61 64 71 86 106 123 131 133 131 130 132 132
215 132 163 158 141 121 107 89 52 6 1 8 18 24 37 96 115 92 47 29 25 13 4 35 45 19 7 13 20 24 30 35 34 29 28 26 24 24 23 22 23 24 24 26 27 22 20 23 25 25 29 32 33 32 29 27 26 27 27 27 29 30 30 29 29 31 33 33 33 42 51 53 56 66 75 84 98 115 127 136 140 140 139 139 138
163 162 167 162 146 131 133 119 49 16 13 22 39 55 87 123 118 84 46 33 24 16 21 76 43 6 359 8 19 22 27 33 33 31 31 29 26 22 16 9 8 10 12 15 16 12 11 16 20 22 27 33 34 31 26 23 22 23 23 23 24 26 27 26 25 27 32 35 40 52 65 68 69 79 90 99 108 116 124 134 142 146 149 153 153
146 160 168 168 157 147 155 135 49 40 38 48 68 88 110 121 110 76 55 50 38 31 45 101 40 353 351 358 19 20 22 28 31 33 34 32 28 25 21 14 9 8 5 2 3 6 12 21 25 25 29 34 35 31 26 22 22 23 24 22 22 24 26 26 22 24 32 43 52 62 71 76 78 84 88 90 93 98 106 116 129 138 144 152 162
141 159 171 174 169 164 174 166 63 63 61 66 82 107 121 117 100 82 74 60 43 39 53 101 251 343 345 338 5 16 16 20 27 32 34 33 31 31 30 23 17 14 9 6 7 15 24 30 31 30 31 34 34 29 24 19 16 17 18 16 15 16 20 20 17 19 30 44 56 65 70 72 75 79 81 80 77 77 83 95 109 122 129 133 138
143 165 181 186 186 185 198 207 138 107 93 82 93 114 127 122 105 95 81 51 37 40 55 89 127 348 346 324 313 349 359 4 15 24 26 27 30 35 33 28 24 21 19 19 25 33 34 32 28 27 27 26 24 22 19 15 9 2 357 352 349 352 1 8 11 15 24 35 47 60 67 71 75 77 77 74 66 65 81 102 109 109 113 120 124
192 191 194 198 202 206 217 219 191 157 142 127 123 127 134 138 136 127 92 57 46 46 54 75 80 358 337 310 291 307 327 335 349 6 10 12 18 27 29 26 25 24 23 24 26 32 34 28 21 17 17 17 13 13 13 13 10 6 1 355 347 342 346 355 3 14 26 33 40 49 59 68 75 79 79 77 70 68 80 102 110 100 93 104 115
228 213 206 210 216 221 227 231 220 200 190 190 178 162 158 165 174 173 142 85 63 52 55 75 76 18 327 306 291 291 299 304 311 331 348 354 1 11 17 18 19 22 22 20 20 25 30 22 12 10 12 11 7 5 6 8 9 8 8 8 5 359 354 352 355 12 38 47 47 51 58 64 73 79 81 80 78 75 76 81 89 96 99 105 112
221 204 203 219 234 231 228 234 234 225 224 226 214 195 191 197 196 188 173 136 96 73 78 87 78 46 335 311 301 295 296 298 297 302 318 331 340 353 1 3 7 12 15 14 15 19 19 9 6 9 9 5 2 2 1 4 6 6 5 6 7 3 358 353 346 347 22 53 60 64 69 72 77 83 85 83 84 86 82 76 76 84 98 114 121
218 205 210 238 260 246 235 237 238 230 230 233 229 217 211 205 197 192 187 180 166 146 127 119 98 57 356 325 314 310 312 312 304 298 301 309 317 328 339 346 349 357 6 11 12 12 6 358 359 2 359 356 357 358 356 357 2 6 6 6 6 2 355 348 340 328 302 298 33 61 75 84 88 92 93 88 86 86 85 79 74 72 78 99 121